Location: Unspecified
(0.0000°N, 0.0000°E)
Time: 16:23:13
(UTC+00:00)

Courier 1B Rocket - Pass Details

Date: 19 November 2019
Orbit: 920 x 1202 km, 28.2° (Epoch: 12 December)

Event Time Altitude Azimuth Distance (km) Brightness Sun altitude
Rises 22:02:32 0° 305° (NW) 4,088 - -58.1°
Reaches altitude 10° 22:05:26 10° 308° (NW) 3,122 - -58.7°
Maximum altitude 22:13:12 68° 30° (NNE) 1,254 - -60.1°
Drops below altitude 10° 22:20:38 10° 112° (ESE) 3,005 - -61.5°
Sets 22:23:22 0° 114° (ESE) 3,927 - -62.0°
